Regional Weather Roundup
Issued by NWS

Home | Current Version | Previous Version | Graphics & Text | Print | Product List | Glossary On
Versions: 1 2 3 4 5 6 7 8 9 10 11 12 13 14 15 16 17 18 19 20 21 22 23 24 25 26 27 28 29 30 31 32 33 34 35 36 37 38 39 40 41 42 43 44 45 46 47 48 49 50
000
ASUS43 KFSD 201202
RWRSD

WEATHER ROUNDUP FOR SOUTH DAKOTA
NATIONAL WEATHER SERVICE SIOUX FALLS SD
700 AM CDT SUN APR 20 2014

NOTE: "FAIR" INDICATES FEW OR NO CLOUDS BELOW 12,000 FEET WITH NO
SIGNIFICANT WEATHER AND/OR OBSTRUCTIONS TO VISIBILITY.


SDZ001>005-009-010-012>017-201300-
NORTHWEST AND NORTH CENTRAL SOUTH DAKOTA

CITY           SKY/WX    TMP DP  RH WIND       PRES   REMARKS
FAITH            N/A     38  28  67 S15       29.93S
MOBRIDGE       CLEAR     36  32  85 SE5       29.94F
$$

SDZ012>016-024>037-041>051-057-063-072>074-201300-
SOUTHWEST AND SOUTH CENTRAL SOUTH DAKOTA

CITY           SKY/WX    TMP DP  RH WIND       PRES   REMARKS
RAPID CTY ARPT CLEAR     38  28  67 CALM      29.91F
PIERRE         MOCLDY    36  28  73 E5        29.96F
CUSTER         CLEAR     42  32  67 NW3       29.97S
ELLSWORTH AFB  CLEAR     44  30  58 S3        29.91S
PHILIP         PTCLDY    45  27  49 E8        29.93F
PINE RIDGE     CLEAR     49  40  71 SW10      29.94F
WINNER         FAIR      41  22  46 SE6       29.99S
$$

SDZ004>011-016>023-039-040-201300-
NORTHEAST SOUTH DAKOTA

CITY           SKY/WX    TMP DP  RH WIND       PRES   REMARKS
ABERDEEN       CLEAR     33  31  92 CALM      30.01S
WATERTOWN      CLEAR     35  33  92 CALM      30.03S
SISSETON         N/A     34  33  96 SW5       30.04S WCI  30
$$

SDZ017-020-022-023-036>040-048>070-201300-
SOUTHEAST SOUTH DAKOTA

CITY           SKY/WX    TMP DP  RH WIND       PRES   REMARKS
SIOUX FALLS    PTCLDY    44  37  76 NE5       29.99F
HURON          CLEAR     35  28  75 SE3       30.00F
CHAMBERLAIN      N/A     40  33  76 CALM      29.99F
MITCHELL         N/A    N/A N/A N/A MISG      30.01S
YANKTON        CLEAR     45  36  70 N6        29.98S
$$

ABBREVIATIONS USED IN REMARKS
   TC - TEMPERATURE IN CELSIUS
  WCI - WIND CHILL INDEX
   HX - HEAT INDEX
  VSB - VISIBILITY




USA.gov is the U.S. government's official web portal to all federal, state and local government web resources and services.